Location: Rancho Del Sol Observatory
(38.7214°N, 120.6350°W)
Time: 05:12:11
(UTC-08:00)

Altair - Visible Passes

Search period start: 19 January 2020 00:00
Search period end: 29 January 2020 00:00
Orbit: 1502 x 1682 km, 47.2° (Epoch: 18 January)

Date Brightness Start Highest point End Pass type
(mag) Time Alt. Az. Time Alt. Az. Time Alt. Az.
19 Jan 9.8 18:32:39 10° W 18:39:15 21° SW 18:45:44 10° SSW visible
20 Jan 9.8 18:07:05 10° WNW 18:14:13 23° SW 18:21:12 10° S visible
21 Jan 9.8 17:41:34 10° WNW 17:49:10 26° SW 17:56:35 10° S visible
23 Jan 10.0 06:27:22 10° S 06:34:12 21° SE 06:41:06 10° E visible
24 Jan 10.0 06:02:53 10° SSE 06:09:08 19° ESE 06:15:28 10° E visible
25 Jan 10.0 05:38:33 10° SSE 05:44:06 17° ESE 05:49:43 10° E visible
26 Jan 10.0 05:14:23 10° SSE 05:19:04 14° ESE 05:23:47 10° E visible
27 Jan 10.1 04:50:33 10° SE 04:54:03 12° ESE 04:57:34 10° E visible
28 Jan 10.1 04:27:41 10° SE 04:29:02 10° ESE 04:30:22 10° ESE visible
28 Jan 8.7 06:22:39 10° SSW 06:31:58 49° SE 06:41:30 10° ENE visible
